Location: Bergnershof
(48.9468°N, 10.9431°E)
Time: 11:36:58
(UTC+00:00)

ERS-2 - Pass Details

Date: 03 March 2021
Orbit: 492 x 496 km, 98.6° (Epoch: 13 April)

Event Time Altitude Azimuth Distance (km) Brightness Sun altitude
Rises 18:21:55 0° 13° (NNE) 2,595 5.7 -13.7°
Reaches altitude 10° 18:24:00 10° 12° (NNE) 1,708 4.8 -14.1°
Maximum altitude 18:27:40 77° 287° (WNW) 516 2.2 -14.7°
Drops below altitude 10° 18:31:18 10° 201° (SSW) 1,694 5.0 -15.3°
Sets 18:33:22 0° 200° (SSW) 2,572 5.9 -15.6°
